Wind_Speed
26 26 27 27 26 25 24 23 24 23 21 22 22 22 22 23 22 10 5 3 12 29 27 29 15 11 7 3 3 3 3 5 7 4 4 8 5 6 5 13 5 6 5 17 26
26 27 28 28 28 28 26 24 24 24 21 21 21 21 20 22 18 9 6 6 14 28 31 22 13 10 3 3 1 3 3 7 18 12 4 10 8 11 6 11 3 7 15 25 23
27 28 29 29 29 29 28 26 24 23 22 21 22 20 18 16 4 5 3 10 18 25 20 23 19 10 4 3 5 5 4 7 11 17 9 8 10 12 9 9 6 19 20 18 21
28 30 31 30 29 29 29 28 25 22 20 21 21 18 15 5 4 1 7 7 17 22 11 10 6 7 6 6 8 4 13 8 9 14 10 9 6 13 10 5 12 17 25 18 16
29 30 31 32 31 30 29 29 24 21 19 19 19 15 6 2 9 7 10 4 14 17 10 6 7 3 2 5 2 6 4 7 7 16 12 8 13 9 8 5 16 19 19 17 15
29 30 31 31 33 32 31 27 25 22 22 21 14 8 2 4 4 6 5 6 9 11 5 7 5 4 2 3 3 5 5 2 10 13 7 9 4 6 2 10 17 21 18 15 15
30 30 31 32 33 32 31 26 27 30 22 14 5 0 0 14 2 7 4 6 7 8 3 5 2 3 3 2 3 6 4 6 14 4 4 7 3 2 9 12 18 17 15 14 12
30 32 32 32 33 33 29 26 29 20 9 4 3 4 7 7 10 24 22 20 17 18 18 19 12 4 2 2 7 5 5 4 3 8 5 6 5 10 11 15 15 15 14 13 12
31 30 33 33 33 33 26 27 14 6 5 5 4 3 9 9 7 11 12 13 4 8 12 15 2 2 5 4 5 6 3 2 3 7 7 2 2 12 13 13 15 14 15 12 13
30 31 32 33 32 28 23 12 4 7 7 5 2 2 7 2 3 10 7 12 7 3 3 3 4 3 4 4 3 1 2 1 6 4 4 7 6 16 16 14 16 17 14 13 14
29 31 31 32 33 19 21 4 6 5 5 5 3 5 6 9 13 5 2 1 3 4 6 1 3 6 10 7 5 2 1 6 4 2 1 3 2 15 18 14 14 16 15 16 16
29 31 32 32 30 12 14 6 4 8 9 8 10 12 23 2 5 6 5 7 6 9 6 2 7 9 6 7 5 4 4 7 5 5 6 6 8 9 21 23 23 21 19 18 16
28 30 32 30 13 9 8 7 21 12 2 8 5 6 5 12 10 9 6 4 4 8 8 13 10 6 6 4 5 4 6 5 7 2 4 2 6 6 12 12 18 19 20 18 21
27 28 30 31 2 19 7 17 21 6 4 7 4 5 4 6 5 9 9 4 2 15 7 5 6 7 5 7 8 5 8 5 6 1 4 4 5 4 6 19 22 20 20 20 19
26 25 26 21 15 7 7 19 16 4 1 1 1 2 1 6 4 4 8 4 6 4 7 9 7 8 12 15 7 9 5 9 7 5 5 2 3 6 4 8 16 21 22 22 21
27 25 29 11 13 11 14 18 2 5 6 5 4 7 6 3 4 5 4 4 4 3 2 6 2 5 8 7 9 8 4 3 2 3 1 18 6 17 6 9 15 19 23 24 23
29 28 27 13 4 7 15 3 4 3 6 6 4 6 3 7 7 5 4 5 6 4 1 3 5 3 3 2 2 4 6 2 3 1 9 7 6 17 10 14 15 25 25 25 23
32 28 15 16 6 7 7 5 2 1 3 4 5 5 6 8 6 9 3 0 3 5 3 6 11 9 3 10 8 8 9 6 7 4 3 3 7 10 9 7 11 20 25 23 22
30 18 8 3 5 3 5 3 5 1 4 6 5 6 7 6 3 8 7 8 7 5 6 7 8 6 8 7 11 6 5 8 5 1 2 4 8 11 4 5 8 16 19 20 21
22 14 5 4 9 4 5 3 3 3 4 4 3 3 3 6 6 6 5 8 8 7 3 3 3 7 8 5 7 9 7 4 2 6 5 5 5 6 5 7 6 14 17 19 21
8 4 7 5 6 5 3 5 4 5 3 2 1 2 2 3 2 4 5 5 8 9 4 3 4 6 1 6 12 1 3 3 4 6 8 4 6 8 12 8 14 17 21 23 21
4 2 4 1 3 1 1 3 4 6 3 3 1 2 3 3 3 5 6 5 9 5 4 3 4 5 14 4 5 9 10 9 6 6 2 3 9 6 11 9 13 16 15 15 18
2 3 6 1 1 2 5 4 4 3 3 1 2 2 0 3 4 4 5 4 9 7 6 6 3 4 3 5 6 3 3 4 3 3 7 5 6 4 6 7 9 13 14 12 12
2 4 4 4 2 3 4 4 6 7 1 3 0 5 4 4 5 2 5 3 8 6 12 4 2 4 5 4 4 5 2 3 5 3 4 7 10 9 8 8 6 9 11 12 15
2 1 2 3 3 3 2 3 4 5 3 4 4 3 3 3 3 3 3 5 4 11 7 4 2 2 8 12 5 7 6 5 6 7 6 7 11 11 12 11 10 9 10 11 10
2 2 4 2 3 4 3 3 3 5 2 4 5 2 4 5 4 2 3 4 3 7 7 5 3 4 5 4 4 9 9 8 7 2 4 7 8 7 7 4 7 10 10 11 13
2 2 3 3 3 2 4 5 8 5 3 2 5 6 6 3 4 5 4 4 5 0 3 3 3 5 5 6 8 2 2 4 3 2 3 3 5 7 6 9 12 12 13 17 16
Wind_Direction
5 3 0 357 353 350 347 345 343 343 342 339 338 337 332 327 327 315 259 199 162 162 159 161 179 187 185 268 122 154 94 140 187 229 200 161 196 150 101 138 191 160 136 140 154
4 2 360 357 353 349 343 339 339 338 338 339 336 336 331 327 327 267 261 191 157 158 159 164 176 182 203 217 207 173 139 178 191 207 186 166 165 160 132 165 117 113 114 134 147
1 359 357 355 352 347 343 337 334 332 332 337 338 334 331 326 323 251 344 177 172 165 172 176 174 173 234 140 203 193 218 168 211 200 212 162 190 218 137 196 194 155 147 144 143
358 356 354 352 349 345 339 336 330 327 327 332 337 332 331 329 252 51 59 141 169 170 178 188 181 193 217 201 180 236 236 206 171 200 178 177 173 200 167 210 152 165 153 147 149
355 353 350 348 346 342 337 332 327 324 323 326 331 336 342 306 251 273 298 208 164 187 205 192 196 202 271 289 43 215 266 182 174 157 185 186 204 186 178 93 137 146 151 151 156
352 349 347 344 342 340 337 330 327 322 314 309 316 334 11 242 284 289 279 222 196 195 205 197 195 237 233 318 45 276 13 114 142 151 185 172 134 99 101 130 138 151 160 159 166
348 346 345 342 339 337 334 330 326 312 299 291 282 17 181 236 173 148 281 277 252 223 252 227 239 58 327 345 270 291 35 32 113 97 79 84 330 270 139 140 145 160 162 167 181
344 343 342 341 339 337 332 329 326 313 291 236 183 144 241 261 265 261 268 275 254 260 263 274 281 262 173 325 14 25 49 125 358 130 160 150 243 135 150 144 157 164 170 175 186
342 341 339 339 338 339 333 331 340 20 88 120 128 155 264 296 261 258 261 252 261 267 254 266 295 175 30 72 9 8 143 120 161 163 149 101 185 163 164 160 166 177 178 182 189
341 342 337 337 339 339 336 333 26 48 79 83 81 18 275 214 294 314 301 254 220 29 350 156 65 99 63 73 214 254 41 58 247 170 163 163 225 169 172 172 178 178 185 183 201
340 341 339 337 339 344 351 35 17 348 17 210 202 262 284 309 298 244 295 25 170 130 175 240 116 198 225 183 192 211 271 272 272 138 66 338 109 186 180 176 182 189 187 188 196
340 340 340 337 339 2 32 73 48 281 299 242 242 255 257 356 309 285 188 160 149 185 138 66 211 221 221 160 175 200 244 260 291 228 159 195 221 212 184 191 188 186 189 190 192
339 340 341 337 345 360 343 47 352 7 245 293 215 235 236 157 216 260 172 161 164 176 181 205 218 196 194 208 187 188 195 228 224 322 300 141 268 171 191 199 201 198 191 190 187
337 339 343 340 29 339 307 340 346 30 32 281 274 277 177 162 247 207 189 143 193 193 157 213 233 190 186 222 164 236 212 237 239 221 255 118 282 208 203 207 197 193 193 193 194
335 336 338 343 308 306 319 334 341 83 326 291 20 170 118 174 263 227 160 97 198 165 126 222 189 179 213 228 163 235 192 198 228 221 317 232 283 264 142 217 204 200 193 195 193
332 330 331 327 295 286 328 329 69 54 246 342 37 343 9 358 302 329 121 93 155 194 54 220 260 172 203 225 191 234 120 52 24 102 264 250 178 276 200 211 210 199 197 191 193
330 326 317 289 240 332 331 28 55 153 330 349 334 343 11 325 5 332 155 148 155 120 170 327 239 212 165 243 168 127 91 282 337 153 232 229 212 238 255 235 208 192 194 192 188
327 325 311 264 261 308 344 57 185 289 324 6 328 320 76 358 359 341 45 249 78 92 129 182 260 165 194 190 187 191 159 166 187 215 241 112 218 251 240 249 220 193 195 185 187
332 335 318 60 133 161 72 89 205 240 302 321 343 56 4 348 67 5 18 27 46 17 185 172 255 295 186 195 167 221 170 186 185 336 26 244 283 300 281 315 164 177 182 186 189
334 332 320 106 135 98 75 223 233 233 332 349 9 72 42 347 38 28 21 39 348 353 194 301 289 222 237 163 231 166 173 88 351 164 235 260 261 240 271 244 150 173 184 193 193
348 19 15 153 161 48 129 234 281 274 313 202 194 57 77 25 12 2 335 9 2 340 30 30 137 279 75 204 213 156 180 101 141 155 202 227 251 224 239 200 192 190 194 195 189
13 13 20 103 39 23 155 212 283 280 297 329 198 113 114 69 57 24 20 35 349 351 15 308 137 233 239 235 201 187 195 186 196 246 241 198 247 262 241 235 193 200 198 201 207
19 268 14 1 127 313 309 292 247 286 231 41 5 57 33 82 86 75 327 310 8 42 353 322 8 350 43 354 352 233 216 164 124 93 210 194 267 265 279 268 199 199 200 193 203
48 359 327 38 54 97 2 294 327 321 23 62 354 74 80 72 4 89 359 325 334 18 19 95 97 139 204 260 274 285 301 179 147 142 211 209 240 279 261 236 212 197 216 197 195
39 303 211 326 340 356 273 283 327 329 2 30 57 71 132 87 92 27 7 328 342 1 17 66 40 306 245 250 231 248 253 239 173 211 172 234 208 231 234 215 209 205 212 217 211
96 55 352 298 299 352 338 342 348 343 343 327 104 112 108 115 139 127 51 46 322 340 22 8 316 345 275 268 319 255 250 239 231 248 244 267 249 233 269 157 180 206 207 213 212
357 15 112 286 331 360 1 338 357 359 295 357 149 116 97 144 159 194 181 192 203 235 311 35 26 358 272 316 315 254 248 289 98 142 207 285 266 322 235 210 197 204 205 211 198
Height
805 801 797 793 789 785 782 780 777 775 773 769 765 761 757 753 750 747 744 741 743 747 751 754 759 762 764 762 763 764 789 798 794 789 772 765 769 764 765 776 774 776 779 782 793
806 802 798 794 789 785 780 777 774 772 771 769 765 761 756 752 747 744 738 738 741 744 750 752 760 762 767 763 764 772 787 776 754 753 757 758 765 766 772 777 778 779 780 786 793
805 801 797 792 788 783 780 776 772 769 767 766 763 760 756 752 749 738 735 736 740 743 744 749 754 760 769 762 763 764 774 754 750 749 748 758 762 759 770 782 776 777 781 787 792
805 800 796 791 787 782 778 774 770 767 765 763 761 759 755 753 768 736 736 738 741 744 746 749 752 764 766 766 751 766 748 746 745 745 752 759 755 760 763 764 761 770 772 782 791
804 799 795 791 786 781 776 772 768 765 763 761 759 758 756 756 746 736 736 738 742 745 745 745 748 748 758 753 746 751 740 736 735 741 747 748 757 760 763 761 763 774 780 785 791
804 799 793 788 784 778 773 768 765 762 760 759 758 757 758 763 736 734 734 735 737 740 740 740 740 737 748 748 749 740 739 737 737 742 748 758 761 760 769 766 769 775 782 787 791
802 797 792 787 781 775 770 765 760 756 754 754 755 756 757 745 734 733 733 733 734 735 736 735 735 740 741 749 740 740 747 744 744 752 760 761 779 771 768 770 775 780 784 789 793
801 795 790 785 779 773 766 761 755 750 749 751 753 755 755 734 733 730 730 730 731 732 734 733 736 736 741 737 749 756 762 775 756 754 758 764 792 777 773 775 782 783 786 789 793
799 793 788 782 776 770 763 758 753 749 749 751 754 755 751 732 731 729 729 728 729 730 730 731 735 742 744 765 781 776 786 775 766 749 755 763 778 774 770 776 782 785 786 789 791
799 793 786 780 774 768 761 755 753 752 752 752 754 759 738 731 727 727 726 725 727 729 733 734 746 759 770 779 805 787 782 774 777 756 754 769 772 770 769 775 779 781 784 787 791
798 792 785 779 773 767 760 755 760 759 754 752 749 748 735 729 726 724 725 725 726 733 753 743 763 776 765 768 765 769 774 781 765 750 759 768 768 769 765 773 779 779 780 783 784
796 790 784 778 772 768 764 765 775 776 769 745 744 740 730 734 739 723 723 732 735 749 745 757 771 754 751 759 765 771 777 780 764 753 761 768 769 757 760 760 761 766 770 774 779
794 789 782 776 771 770 768 770 770 767 773 748 738 735 730 731 735 727 721 724 734 749 750 756 751 744 752 758 767 774 781 776 774 756 755 764 771 762 756 753 757 757 758 763 767
793 788 783 775 775 772 769 767 765 764 789 754 738 727 725 725 731 711 713 721 730 743 749 753 738 747 754 760 762 783 760 759 765 773 788 757 800 765 757 750 748 753 757 760 763
791 787 784 781 778 775 770 766 763 764 792 736 730 721 720 729 722 714 710 720 736 736 745 754 747 752 756 751 752 765 749 760 760 772 772 765 788 759 756 761 752 746 746 751 755
788 785 782 780 777 771 768 765 764 789 790 746 735 740 736 728 722 714 715 714 720 735 739 744 730 738 740 737 743 740 754 762 766 785 809 763 786 756 764 748 739 734 736 739 746
784 780 778 775 771 769 767 766 792 795 755 762 756 750 748 745 737 731 726 738 747 761 760 749 744 734 730 747 741 750 778 812 812 815 796 762 782 752 724 715 715 721 722 728 734
779 773 769 767 768 769 768 779 788 770 766 756 755 752 754 754 749 744 737 744 737 746 768 771 768 742 729 742 756 762 774 809 819 816 791 772 783 744 711 709 701 703 710 719 728
775 768 764 764 766 769 775 793 787 774 766 764 761 765 769 759 755 756 758 756 753 748 764 774 767 729 723 726 736 751 773 758 784 783 798 781 749 719 706 703 701 704 711 718 724
776 771 766 766 767 769 786 788 782 768 763 762 769 767 776 770 770 771 766 758 758 747 747 752 764 738 721 722 727 738 741 777 793 804 807 787 766 752 719 712 710 711 711 712 715
778 777 769 769 770 778 793 792 775 763 760 763 766 769 772 774 769 772 772 759 754 751 747 755 761 749 729 737 740 745 754 756 769 780 785 796 775 725 714 705 706 702 700 699 705
786 785 770 771 785 800 790 780 768 764 760 761 759 762 770 774 773 771 774 766 756 755 765 755 771 769 743 723 719 728 742 746 768 775 779 776 752 700 698 694 694 693 694 697 701
797 794 772 772 791 796 788 777 771 765 762 762 764 762 764 772 779 778 774 763 760 761 769 761 775 784 750 742 731 730 730 734 752 761 768 772 759 698 696 695 689 691 688 692 697
798 796 785 782 791 789 790 781 776 763 762 763 764 767 772 778 778 780 778 764 763 761 754 759 781 783 789 772 762 750 737 727 744 768 756 758 735 712 696 695 691 690 685 686 689
801 801 799 805 796 796 792 784 777 775 766 768 771 772 773 784 782 784 780 778 767 765 765 772 778 775 773 761 755 746 738 730 738 736 746 727 730 707 694 689 684 683 682 685 687
802 803 802 803 800 793 789 781 777 777 771 769 773 772 775 781 782 783 781 784 782 777 777 781 783 784 770 747 743 743 728 723 721 712 723 721 719 689 680 679 680 678 679 679 677
800 800 801 802 800 795 796 786 782 780 770 768 770 775 777 778 775 775 775 778 780 781 786 786 791 792 775 758 750 742 720 717 712 713 718 725 707 701 687 682 674 672 671 665 663